Wind_Speed
33 33 32 32 32 32 31 31 31 31 31 32 31 31 30 29 29 28 28 28 27 27 27 28 28 27 26 25 25 25 25 24 24 24 24 24 24 23 23 24 24 23 23
34 34 35 34 34 34 33 33 32 32 31 31 31 31 31 31 30 29 29 29 29 28 28 28 28 28 28 27 27 27 27 27 26 26 26 26 25 25 24 24 25 25 24
36 36 36 36 36 36 35 35 34 34 33 32 32 32 31 31 30 30 30 30 29 29 29 28 28 29 28 29 29 29 28 28 28 28 28 27 27 26 26 26 25 25 25
38 38 38 37 37 37 37 37 36 36 35 35 34 34 33 32 32 32 31 31 30 30 30 30 30 30 29 29 29 30 29 29 29 29 29 28 28 28 27 27 26 26 26
40 40 40 40 39 38 38 38 38 38 37 37 36 36 35 34 33 33 32 32 32 31 31 31 31 31 31 31 30 30 31 31 30 30 29 29 29 29 29 29 28 28 28
42 41 41 41 41 40 40 39 39 39 39 38 37 36 37 37 36 35 34 34 33 33 32 32 32 32 33 32 31 31 32 32 31 30 30 30 30 30 30 30 31 31 30
44 43 43 43 42 41 41 41 40 40 40 40 39 38 37 37 37 37 36 35 35 35 35 34 33 34 34 34 33 33 32 32 32 32 32 32 32 31 31 31 31 31 32
45 45 44 44 44 43 43 42 42 41 41 41 41 40 39 38 38 38 37 37 37 36 36 36 36 35 35 35 34 34 34 33 33 33 33 33 33 33 33 33 33 33 32
47 47 47 46 45 44 44 44 44 43 43 42 42 42 42 41 40 39 39 38 37 36 36 37 37 37 36 36 36 36 36 35 35 34 35 34 34 34 34 34 34 34 35
49 49 49 48 47 47 46 46 45 45 44 44 44 43 43 43 41 40 40 40 40 39 38 38 38 38 37 37 37 37 37 37 37 37 36 36 36 36 35 35 35 35 35
51 51 51 50 50 49 48 48 47 47 46 46 46 45 44 44 44 43 42 41 42 41 41 40 39 38 38 38 39 39 38 38 38 38 37 37 37 37 37 37 37 37 37
52 52 52 51 51 51 50 50 49 49 48 48 47 47 46 46 46 45 44 43 43 42 42 41 41 40 40 40 41 40 40 40 40 39 38 38 38 38 38 38 38 38 39
53 52 52 52 52 51 51 51 51 50 50 49 49 49 48 48 48 47 46 45 44 43 42 42 42 41 41 41 41 41 41 41 41 41 40 39 39 39 39 39 40 40 41
54 54 53 52 52 52 52 52 52 51 51 51 50 50 49 49 49 48 47 46 45 44 43 43 43 43 43 43 43 43 42 43 42 42 42 41 41 42 42 42 42 42 42
53 53 53 53 53 53 53 52 52 52 52 51 51 50 50 50 49 49 48 48 47 45 44 43 44 44 44 44 44 44 44 44 43 44 43 43 44 44 44 44 44 44 44
52 53 54 54 54 53 52 52 52 52 52 51 51 51 50 50 49 49 49 48 48 47 45 44 44 45 45 46 45 45 45 45 45 45 45 45 45 45 45 46 45 45 45
51 51 52 53 53 53 53 52 52 51 51 51 51 51 51 51 51 50 50 49 49 48 47 46 46 45 45 46 46 46 46 46 46 47 46 46 46 46 46 46 46 47 46
52 51 50 50 51 52 52 52 52 52 52 52 52 52 52 51 51 51 51 50 50 49 49 48 47 46 45 45 46 47 47 47 47 47 47 47 47 47 47 47 47 47 47
53 51 50 50 49 50 51 51 51 52 53 53 52 52 53 52 52 52 52 51 51 51 50 50 49 48 47 47 48 47 47 47 48 48 48 48 48 48 48 48 48 48 49
51 51 49 49 48 48 49 50 51 51 52 53 53 53 54 53 53 53 53 52 52 51 51 51 50 50 49 49 49 48 48 48 48 48 49 49 48 48 48 48 49 49 49
51 51 50 49 48 48 48 49 50 51 52 53 53 53 53 53 54 54 53 52 51 51 50 51 51 51 51 50 50 49 49 49 49 49 49 48 48 48 49 49 49 48 49
48 48 49 49 48 47 47 48 50 50 51 51 51 52 52 53 53 52 52 52 51 50 50 51 51 51 51 51 50 50 49 49 49 48 49 49 49 49 49 49 48 48 48
46 46 47 48 48 48 47 48 48 48 48 48 48 49 50 51 51 50 50 51 51 50 51 50 50 50 50 50 50 50 49 48 47 47 48 48 48 48 49 49 49 49 49
46 46 46 47 47 48 48 48 48 47 47 47 48 48 49 49 50 50 49 50 50 50 50 50 49 49 50 50 50 49 48 47 47 48 48 47 47 48 49 50 50 50 51
45 45 45 46 46 46 47 48 48 47 47 47 47 48 48 48 48 49 49 49 49 49 49 49 49 49 49 49 49 48 48 47 47 47 48 48 48 48 49 49 50 51 52
42 43 44 44 44 44 45 46 47 47 47 47 47 47 47 48 49 49 49 48 48 48 48 48 48 48 48 47 47 47 47 47 47 46 47 48 48 48 48 48 49 50 51
Wind_Direction
254 254 253 253 253 252 252 252 252 251 251 250 249 250 251 253 254 254 254 254 255 256 257 257 256 256 257 258 258 259 261 263 264 265 266 267 268 270 270 270 271 272 273
254 254 253 253 252 251 251 251 251 251 251 250 250 250 251 252 252 253 254 255 255 255 256 256 257 257 258 259 260 260 261 262 265 266 266 267 268 269 270 270 271 272 273
255 254 253 253 253 252 251 250 251 251 251 251 251 251 251 252 253 253 253 254 254 255 256 256 257 258 259 260 260 260 261 263 265 266 267 267 268 268 268 269 271 271 272
254 254 254 253 253 252 251 249 250 250 251 252 252 251 250 251 253 253 253 253 254 255 256 256 257 258 259 260 261 260 261 263 264 266 267 268 268 268 268 268 269 272 273
255 254 254 254 252 252 251 250 250 250 250 251 252 251 251 251 251 252 253 254 254 255 256 256 256 258 258 259 260 260 261 263 265 266 267 268 267 267 267 268 268 270 272
254 254 254 254 253 252 252 251 251 250 250 251 251 251 251 251 252 252 252 253 254 254 255 256 256 256 257 258 259 261 262 263 265 267 268 269 269 268 268 268 269 270 270
254 254 254 253 253 253 252 252 252 251 251 251 251 251 250 251 252 252 253 254 255 255 255 255 256 256 256 257 260 261 262 263 265 267 268 269 269 268 268 269 270 270 270
254 254 254 253 253 252 252 252 252 251 251 251 251 251 250 250 251 252 253 254 255 255 255 256 257 256 256 258 259 261 262 263 265 268 268 268 269 268 268 269 270 271 272
253 254 254 254 253 252 252 252 252 252 251 251 251 251 250 251 252 251 253 253 253 255 255 256 256 255 256 257 259 260 261 263 265 268 268 268 268 268 268 269 270 271 273
253 253 253 253 253 252 251 251 251 251 251 251 250 250 251 251 251 251 253 253 254 256 256 256 256 255 255 257 259 260 261 263 264 266 267 267 268 269 269 269 270 271 273
253 253 253 253 253 252 252 251 251 250 251 251 250 250 251 251 251 252 252 254 255 256 257 256 255 256 256 257 258 260 261 263 264 265 266 266 267 268 268 268 269 270 272
253 253 253 253 252 252 252 251 251 250 251 251 251 249 250 250 251 252 253 253 254 255 257 257 255 257 258 259 259 259 260 262 263 263 263 265 266 267 267 268 268 268 271
253 252 252 252 252 251 251 251 250 250 250 250 251 249 250 250 250 252 253 253 253 254 256 256 257 258 259 259 259 260 260 262 263 262 263 264 265 266 267 267 268 269 270
253 253 252 251 251 251 250 250 249 250 250 250 250 249 249 250 250 251 252 253 253 253 254 256 257 258 259 260 261 261 262 262 262 262 263 264 265 266 267 267 268 269 270
253 253 252 251 251 251 250 250 250 250 250 249 248 248 249 250 250 251 252 252 252 252 253 255 257 258 259 260 261 261 262 262 262 263 264 264 265 266 267 267 267 269 270
253 253 252 252 251 251 250 250 250 250 250 249 248 249 249 249 249 249 250 250 251 252 253 255 257 259 260 260 261 261 262 262 263 263 264 264 265 266 267 267 268 268 270
253 252 252 250 250 250 249 249 249 250 248 248 248 248 248 248 249 249 250 250 251 252 254 254 256 258 260 260 261 262 263 264 264 264 264 265 266 266 267 268 268 269 271
252 251 251 250 250 249 249 248 248 248 248 248 248 249 249 248 249 249 250 250 251 252 254 255 257 258 259 261 262 264 264 265 265 265 265 266 266 267 267 268 269 270 271
252 252 251 251 251 249 247 247 247 248 249 248 248 248 248 248 249 249 250 250 251 253 254 255 257 258 259 261 263 264 265 265 265 265 265 266 267 267 267 268 269 270 272
253 252 252 251 251 250 249 249 248 248 248 248 248 247 248 248 249 249 250 251 252 253 254 255 257 258 259 261 263 264 264 265 265 265 265 266 266 266 267 268 269 271 272
253 252 252 252 251 251 250 250 249 249 249 249 248 247 248 248 249 249 250 250 252 253 254 256 257 258 259 261 262 263 264 264 265 265 265 266 267 267 268 269 270 271 272
253 252 252 251 250 250 251 252 250 250 250 250 249 248 248 248 249 250 250 250 251 252 254 256 257 258 259 260 261 263 263 264 264 265 265 266 266 267 268 270 271 272 273
253 252 252 251 250 250 251 251 251 250 250 250 248 247 248 248 248 249 250 250 251 252 254 256 257 258 259 260 261 262 262 263 263 264 265 266 266 268 269 269 270 272 273
253 253 253 251 251 250 251 250 250 250 250 249 248 248 248 248 248 248 250 251 252 253 255 256 256 258 260 261 261 261 261 262 263 264 265 266 267 268 269 270 271 272 274
253 253 252 251 251 250 250 249 249 248 248 248 249 249 248 248 248 249 250 251 252 253 255 256 257 258 259 260 260 260 261 262 264 265 266 267 268 269 270 271 273 274 275
254 253 252 251 250 250 249 248 248 248 248 248 249 249 249 249 249 249 250 251 252 253 254 256 257 258 258 259 260 261 262 263 264 265 266 268 269 270 271 272 274 275 276
Height
5788 5789 5791 5792 5794 5796 5797 5799 5801 5803 5805 5806 5808 5810 5812 5814 5816 5817 5819 5820 5822 5823 5825 5826 5827 5829 5830 5831 5832 5834 5835 5836 5836 5837 5838 5838 5839 5839 5839 5839 5840 5840 5840
5780 5781 5783 5784 5786 5788 5790 5792 5794 5795 5797 5799 5801 5803 5805 5807 5809 5811 5812 5814 5816 5817 5819 5820 5822 5823 5824 5826 5827 5828 5829 5830 5831 5832 5832 5833 5833 5834 5834 5834 5834 5834 5834
5771 5773 5775 5776 5778 5780 5782 5784 5786 5788 5790 5792 5794 5796 5798 5800 5802 5804 5806 5807 5809 5811 5812 5814 5815 5817 5818 5820 5821 5822 5823 5824 5825 5826 5827 5827 5828 5828 5828 5828 5829 5829 5829
5762 5764 5765 5767 5769 5771 5773 5775 5777 5779 5782 5784 5786 5788 5791 5793 5795 5797 5799 5801 5802 5804 5806 5807 5809 5810 5812 5813 5814 5815 5817 5818 5819 5819 5820 5821 5822 5822 5822 5823 5823 5823 5823
5752 5754 5756 5758 5759 5761 5763 5766 5768 5770 5773 5775 5778 5780 5783 5785 5787 5789 5791 5793 5795 5797 5799 5800 5802 5803 5805 5806 5807 5809 5810 5811 5812 5813 5814 5814 5815 5816 5816 5817 5817 5817 5817
5742 5743 5745 5747 5750 5752 5754 5756 5759 5761 5763 5766 5769 5772 5774 5777 5779 5781 5783 5785 5787 5789 5791 5793 5795 5796 5797 5799 5801 5802 5803 5804 5805 5806 5807 5808 5808 5809 5809 5810 5810 5810 5811
5731 5733 5735 5737 5739 5742 5744 5746 5749 5751 5753 5756 5760 5762 5765 5767 5770 5773 5775 5777 5779 5781 5783 5785 5787 5788 5790 5792 5793 5795 5796 5797 5798 5799 5800 5800 5801 5802 5802 5803 5803 5803 5803
5720 5722 5724 5726 5729 5731 5733 5736 5738 5741 5744 5746 5749 5752 5755 5759 5761 5764 5766 5768 5771 5773 5775 5777 5779 5780 5782 5784 5785 5787 5788 5789 5790 5791 5792 5793 5793 5794 5794 5795 5795 5796 5796
5708 5711 5713 5715 5717 5720 5723 5725 5728 5731 5734 5736 5739 5742 5745 5749 5751 5754 5757 5759 5761 5764 5766 5768 5770 5772 5773 5775 5777 5779 5780 5781 5782 5783 5784 5785 5785 5786 5786 5787 5787 5788 5788
5696 5698 5700 5703 5705 5708 5711 5714 5716 5719 5722 5725 5728 5731 5735 5738 5742 5745 5748 5750 5752 5754 5756 5759 5761 5762 5764 5766 5768 5770 5771 5773 5774 5775 5776 5776 5777 5778 5778 5779 5779 5779 5780
5683 5685 5687 5690 5693 5696 5699 5702 5704 5707 5711 5714 5717 5720 5723 5727 5730 5734 5738 5740 5742 5744 5746 5749 5751 5753 5755 5757 5758 5760 5762 5763 5765 5766 5767 5768 5768 5769 5769 5770 5770 5771 5771
5669 5671 5673 5676 5679 5682 5686 5689 5692 5695 5698 5702 5705 5708 5712 5715 5719 5722 5726 5729 5732 5734 5736 5738 5741 5743 5745 5747 5748 5750 5752 5753 5755 5756 5757 5758 5759 5760 5760 5761 5761 5761 5762
5654 5657 5659 5662 5665 5668 5672 5675 5678 5682 5685 5689 5692 5696 5700 5704 5707 5711 5715 5718 5721 5724 5726 5728 5730 5732 5734 5736 5738 5740 5741 5743 5744 5746 5747 5748 5749 5750 5751 5751 5752 5752 5752
5640 5642 5645 5648 5651 5654 5658 5661 5665 5668 5672 5675 5679 5683 5687 5691 5695 5699 5703 5706 5709 5713 5715 5718 5720 5722 5724 5726 5728 5729 5731 5732 5734 5735 5736 5738 5739 5740 5740 5741 5741 5742 5742
5625 5627 5630 5633 5636 5639 5643 5647 5651 5655 5658 5662 5666 5669 5674 5678 5682 5686 5690 5694 5697 5701 5704 5707 5709 5711 5713 5715 5717 5718 5720 5721 5723 5724 5725 5726 5728 5728 5729 5730 5730 5731 5731
5610 5613 5616 5619 5622 5625 5629 5633 5637 5641 5645 5648 5652 5656 5661 5665 5669 5673 5677 5681 5684 5688 5692 5696 5698 5700 5702 5703 5705 5707 5709 5710 5711 5713 5714 5715 5716 5717 5717 5718 5719 5719 5719
5595 5598 5601 5604 5607 5611 5615 5619 5623 5627 5631 5635 5639 5643 5647 5652 5656 5660 5664 5668 5672 5675 5679 5684 5686 5688 5690 5692 5694 5695 5697 5698 5700 5701 5702 5703 5704 5705 5705 5706 5707 5707 5707
5580 5583 5586 5590 5593 5597 5601 5605 5609 5613 5618 5622 5626 5630 5634 5638 5642 5647 5651 5655 5659 5662 5666 5670 5673 5676 5678 5680 5681 5683 5684 5686 5687 5689 5690 5691 5691 5692 5693 5694 5694 5694 5695
5566 5569 5572 5576 5579 5583 5587 5591 5595 5599 5603 5608 5612 5616 5620 5624 5629 5633 5637 5641 5645 5649 5653 5657 5660 5663 5665 5667 5668 5670 5672 5673 5675 5676 5677 5678 5679 5679 5680 5681 5681 5682 5682
5553 5556 5559 5563 5566 5570 5573 5577 5581 5585 5589 5593 5598 5602 5606 5611 5615 5619 5624 5628 5632 5636 5639 5643 5646 5650 5652 5654 5655 5658 5659 5660 5662 5663 5664 5665 5665 5666 5667 5668 5668 5668 5668
5540 5543 5546 5549 5553 5556 5560 5563 5567 5571 5575 5579 5583 5588 5592 5597 5601 5606 5610 5614 5618 5622 5625 5629 5633 5636 5638 5640 5643 5644 5646 5647 5648 5649 5650 5651 5652 5653 5653 5654 5654 5654 5654
5527 5530 5533 5536 5540 5543 5546 5549 5553 5557 5561 5565 5569 5574 5578 5583 5587 5592 5596 5600 5604 5608 5612 5615 5619 5622 5625 5627 5629 5630 5632 5634 5636 5637 5637 5638 5638 5639 5640 5640 5640 5640 5641
5514 5517 5520 5523 5527 5530 5533 5536 5540 5544 5548 5552 5556 5560 5564 5569 5573 5578 5582 5586 5590 5594 5598 5602 5605 5607 5610 5613 5615 5617 5618 5620 5622 5623 5623 5625 5625 5626 5626 5626 5627 5627 5627
5501 5505 5507 5511 5514 5517 5520 5523 5527 5531 5535 5539 5543 5547 5552 5556 5560 5564 5568 5573 5577 5581 5585 5588 5591 5594 5596 5598 5600 5603 5604 5606 5608 5609 5609 5611 5612 5612 5612 5613 5613 5613 5613
5489 5492 5495 5498 5501 5504 5507 5511 5514 5518 5522 5527 5531 5535 5539 5543 5548 5552 5556 5560 5564 5568 5571 5574 5577 5579 5582 5584 5586 5588 5590 5592 5594 5595 5596 5597 5598 5599 5599 5599 5599 5598 5598
5476 5479 5482 5485 5489 5492 5495 5498 5502 5506 5511 5515 5519 5523 5527 5531 5534 5538 5543 5547 5551 5554 5558 5561 5563 5566 5568 5570 5573 5575 5577 5579 5580 5582 5583 5584 5584 5585 5586 5587 5585 5584 5583